Location: Fort Worth, Tx
(32.7431°N, 97.3695°W)
Time: 17:49:34
(UTC-04:00)

Altair - Pass Details

Date: 12 October 2023
Orbit: 1501 x 1682 km, 47.2° (Epoch: 12 September)

Event Time Altitude Azimuth Distance (km) Brightness Sun altitude
Rises 23:09:30 0° 205° (SSW) 4,626 10.1 -40.1°
Enters shadow 23:12:39 10° 199° (SSW) 3,664 9.4 -40.8°
Reaches altitude 10° 23:12:41 10° 199° (SSW) 3,658 - -40.8°
Maximum altitude 23:21:12 43° 131° (SE) 2,038 - -42.5°
Drops below altitude 10° 23:29:59 10° 64° (ENE) 3,779 - -44.2°
Sets 23:33:18 0° 58° (ENE) 4,793 - -44.8°
